This demonstration page uses our WeatherBlox Daily Observations layout. Learn more.

Left ArrowRight Arrow

Hourly Observations for February 7, 2020

Temp ( °F °C ) Dew Point ( °F °C ) Humidity (%) Winds ( mph kmh ) Pressure ( in mb ) Visibility ( mi km ) Precip ( " mm )
12:53 am 00:53 Cloudy with Light Snow 29 -1.7 25 -3.9 85 85 NNW 6 9 29.47 998 5 8 0.00 0.00
1:00 am 01:00 Cloudy with Light Snow 29 -1.7 25 -3.9 85 85 N 7 11 29.49 999 3 4 0.00 0.00
1:20 am 01:20 Cloudy with Light Snow 29 -1.7 26 -3.3 89 89 NNW 7 11 29.48 998 2 3 0.00 0.00
1:27 am 01:27 Cloudy with Light Snow 28 -2.2 26 -3.3 92 92 NNW 10 17 29.48 998 2 3 0.00 0.00
1:51 am 01:51 Cloudy with Light Snow 28 -2 27 -3 93 93 NW 10 17 29.47 998 3 5 0.01 0.25
1:53 am 01:53 Cloudy with Light Snow 28 -2.2 26 -3.3 92 92 NNW 10 17 29.44 997 3 5 0.01 0.25
2:06 am 02:06 Cloudy with Light Snow 28 -2.2 25 -3.9 88 88 NNW 9 15 29.47 998 4 6 0.00 0.00
2:44 am 02:44 Cloudy with Light Snow 28 -2.2 25 -3.9 88 88 NW 8 13 29.46 998 6 10 0.00 0.00
2:53 am 02:53 Cloudy with Light Snow 28 -2.2 25 -3.9 88 88 NW 9 15 29.45 997 5 8 0.00 0.00
3:01 am 03:01 Cloudy with Mist and Fog 28 -2.2 24 -4.4 85 85 NNW 8 13 29.47 998 6 10 0.00 0.00
3:11 am 03:11 Cloudy with Light Snow 28 -2.2 24 -4.4 85 85 NNW 12 19 29.46 998 5 8 0.00 0.00
3:38 am 03:38 Cloudy with Light Snow 28 -2.2 24 -4.4 85 85 NW 8 13 29.48 998 2 3 0.00 0.00
3:53 am 03:53 Cloudy with Light Snow 27 -2.8 24 -4.4 89 89 NW 9 15 29.46 998 3 5 0.00 0.00
4:07 am 04:07 Cloudy with Mist and Fog 27 -2.8 24 -4.4 89 89 NW 6 9 29.48 998 5 8 0.00 0.00
4:40 am 04:40 Cloudy with Light Snow 27 -2.8 25 -3.9 92 92 WNW 7 11 29.50 999 2 3 0.00 0.00
4:53 am 04:53 Cloudy with Light Snow 27 -2.8 25 -3.9 92 92 W 6 9 29.49 999 2 3 0.00 0.00
5:14 am 05:14 Cloudy with Light Snow 27 -2.8 25 -3.9 92 92 W 6 9 29.52 1000 2 2 0.00 0.00
5:25 am 05:25 Cloudy with Light Snow 27 -2.8 25 -3.9 92 92 W 7 11 29.52 1000 2 3 0.01 0.25
5:33 am 05:33 Cloudy with Light Snow 27 -2.8 25 -3.9 92 92 W 6 9 29.53 1000 2 3 0.01 0.25
5:39 am 05:39 Cloudy with Light Snow 27 -2.8 25 -3.9 92 92 W 5 7 29.53 1000 2 2 0.01 0.25
5:53 am 05:53 Cloudy with Light Snow 27 -2.8 25 -3.9 92 92 W 7 11 29.51 999 1 2 0.01 0.25
6:00 am 06:00 Cloudy with Light Snow 27 -2.8 25 -3.9 92 92 W 8 13 29.54 1000 1 2 0.01 0.25
6:24 am 06:24 Cloudy with Light Snow 27 -2.8 25 -3.9 92 92 WNW 8 13 29.55 1001 2 3 0.01 0.25
6:53 am 06:53 Cloudy with Light Snow 27 -2.8 24 -4.4 89 89 W 10 17 29.55 1001 3 4 0.01 0.25
7:00 am 07:00 Cloudy with Light Snow 27 -2.8 24 -4.4 89 89 WNW 10 17 29.58 1002 3 5 0.00 0.00
7:33 am 07:33 Cloudy with Light Snow 27 -2.8 23 -5 85 85 WNW 10 17 29.60 1002 6 10 0.00 0.00
7:53 am 07:53 Cloudy with Light Snow 27 -2.8 24 -4.4 89 89 W 8 13 29.60 1002 5 8 0.00 0.00
8:02 am 08:02 Cloudy with Light Snow 27 -2.8 24 -4.4 89 89 W 8 13 29.62 1003 3 5 0.00 0.00
8:21 am 08:21 Cloudy with Light Snow 27 -2.8 24 -4.4 89 89 WNW 8 13 29.64 1004 3 4 0.00 0.00
8:44 am 08:44 Cloudy with Light Snow 27 -2.8 24 -4.4 89 89 W 10 17 29.65 1004 2 3 0.00 0.00
8:53 am 08:53 Cloudy with Light Snow 27 -2.8 24 -4.4 89 89 W 8 13 29.63 1003 1 2 0.00 0.00
9:01 am 09:01 Cloudy with Light Snow 27 -2.8 24 -4.4 89 89 W 8 13 29.65 1004 1 2 0.00 0.00
9:38 am 09:38 Cloudy with Light Snow 27 -2.8 24 -4.4 89 89 W 10 17 29.68 1005 1 2 0.01 0.25
9:49 am 09:49 Cloudy with Light Snow 28 -2 25 -4 86 86 W 12 19 29.69 1005 1 2 0.01 0.25
9:53 am 09:53 Cloudy with Light Snow 28 -2.2 24 -4.4 85 85 W 9 15 29.67 1005 1 2 0.01 0.25
10:05 am 10:05 Cloudy with Light Snow 28 -2.2 24 -4.4 85 85 W 10 17 29.70 1006 2 3 0.00 0.00
10:16 am 10:16 Cloudy with Light Snow 28 -2.2 23 -5 81 81 WNW 10 17 29.71 1006 3 4 0.00 0.00
10:26 am 10:26 Cloudy with Light Snow 28 -2.2 23 -5 81 81 W 12 19 29.72 1006 3 5 0.00 0.00
10:53 am 10:53 Cloudy 28 -2.2 22 -5.6 78 78 W 10 17 29.71 1006 9 14 0.00 0.00
11:53 am 11:53 Mostly Cloudy 31 -0.6 23 -5 72 72 W 10 17 29.75 1007 10 16 N/A
12:53 pm 12:53 Mostly Cloudy 32 undefined 24 -4.4 73 73 W 12 19 29.77 1008 10 16 N/A
1:53 pm 13:53 Cloudy 33 0.6 22 -5.6 64 64 WNW 14 22 29.78 1009 10 16 N/A
2:16 pm 14:16 Mostly Cloudy 32 undefined 21 -6.1 64 64 WNW 14 22 29.81 1010 10 16 N/A
2:53 pm 14:53 Cloudy 32 undefined 22 -5.6 66 66 WNW 16 26 29.82 1010 10 16 N/A
3:53 pm 15:53 Partly Cloudy 35 1.7 22 -5.6 59 59 WNW 12 19 29.86 1011 10 16 N/A
4:53 pm 16:53 Mostly Cloudy 35 1.7 21 -6.1 57 57 WNW 10 17 29.89 1012 10 16 N/A
5:53 pm 17:53 Mostly Sunny 33 0.6 21 -6.1 61 61 W 8 13 29.93 1014 10 16 N/A
6:53 pm 18:53 Clear 30 -1.1 23 -5 75 75 W 5 7 29.96 1015 10 16 N/A
7:53 pm 19:53 Clear 29 -1.7 24 -4.4 82 82 WSW 3 6 29.99 1016 10 16 N/A
8:53 pm 20:53 Cloudy 31 -0.6 25 -3.9 79 79 WSW 5 7 30.01 1016 10 16 N/A
9:53 pm 21:53 Cloudy 30 -1.1 27 -2.8 88 88 N N/A 30.04 1017 10 16 N/A
10:53 pm 22:53 Cloudy 31 -0.6 27 -2.8 85 85 SW 5 7 30.06 1018 10 16 0.00 0.00
11:53 pm 23:53 Cloudy 30 -1.1 26 -3.3 85 85 SW 5 7 30.08 1019 10 16 N/A

Powered by AerisWeather